#timestamp,LO_Frequency,Hit,StdDev 
1503432015.4,286047000.3,N,0.9
1503432035.3,286047000.1,N,0.9
1503432055.1,286047000.3,N,0.9
1503432075.9,286047000.7,N,0.8
1503432095.7,286046998.1,N,1.0
1503432115.5,286046998.2,N,1.0
1503432135.4,286047000.6,N,1.0
1503432155.2,286047000.0,N,1.0
1503432175.0,286047001.7,N,1.0
1503432176.0,286047001.7,N,1.0
1503432195.8,286047002.3,N,1.1
1503432215.6,286046999.8,N,1.1
1503432235.5,286046999.7,N,1.1
1503432255.3,286046999.8,N,1.0
1503432275.1,286047002.2,N,1.1
1503432295.9,286047001.5,N,1.1
1503432315.7,286046999.8,N,1.1
1503432335.6,286046999.8,N,1.0
1503432355.4,286046999.8,N,1.0
1503432375.2,286047002.4,N,1.1
1503432395.1,286047001.4,N,1.1
1503432396.0,286047001.4,N,1.1
1503432415.8,286047001.3,N,1.1
1503432435.7,286047004.1,Y,0.0
1503432455.5,286047003.9,P,1.7
1503432475.3,286047004.0,N,1.6
1503432495.2,286047001.9,N,1.5
1503432515.0,286047003.8,N,1.4
1503432515.9,286047003.8,N,1.3
1503432535.8,286047001.4,N,1.3
1503432555.6,286047001.5,N,1.3
1503432575.4,286047001.9,N,1.3
1503432595.3,286047001.3,N,1.3
1503432615.1,286047006.0,Y,0.0
1503432635.8,286047002.2,P,0.1
1503432655.7,286046999.8,N,1.2
1503432675.5,286046999.8,N,1.3
1503432695.4,286047000.1,N,1.2
1503432715.2,286047000.1,N,1.1
1503432735.0,286047000.0,N,1.1
1503432735.9,286047000.0,N,1.0
1503432755.8,286047000.4,N,1.0
1503432775.6,286047000.4,N,0.9
1503432795.5,286046999.7,N,0.9
1503432815.3,286047002.3,N,1.0
1503432835.1,286047000.1,N,1.0
1503432855.9,286047002.2,N,1.0
1503432875.7,286046999.7,N,1.0
1503432895.5,286047000.3,N,1.0
1503432915.4,286047000.0,N,1.0
1503432935.2,286047000.9,N,0.9
1503432955.1,286047000.6,N,0.9
1503432956.0,286047000.6,N,0.9
1503432975.8,286047000.5,N,0.9
1503432995.6,286047000.3,N,0.9
1503433015.5,286047000.3,N,0.8
1503433035.3,286047000.3,N,0.8
1503433055.2,286046999.8,N,0.8
1503433075.9,286047001.7,N,0.8
1503433095.7,286047004.1,Y,0.0
1503433115.6,286047002.6,P,1.0
1503433135.4,286047001.3,N,0.8
1503433155.3,286047002.3,N,0.8
1503433175.1,286047002.6,Y,0.0
1503433195.8,286047000.2,P,0.7
1503433215.7,286046999.9,N,0.8
1503433235.5,286047000.9,N,0.7
1503433255.4,286047000.7,N,0.6
1503433275.2,286047001.0,N,0.6
1503433295.0,286047000.8,N,0.5
1503433295.9,286047000.8,N,0.5
1503433315.8,286046998.3,Y,0.0
1503433335.6,286046999.0,P,0.9
1503433355.5,286046999.2,N,0.8
1503433375.3,286046998.7,N,0.8
1503433395.1,286046998.8,N,0.7
1503433415.9,286046998.4,N,0.8
1503433435.7,286046999.3,N,0.7
1503433455.6,286046999.0,N,0.7
1503433475.4,286046999.3,N,0.6
1503433495.2,286046998.5,N,0.6
1503433515.1,286047001.0,N,0.8
1503433516.0,286047001.0,N,0.9
1503433535.8,286046998.7,N,0.9
1503433555.7,286047000.8,N,0.9
1503433575.5,286047000.4,N,0.9
1503433595.3,286047000.6,N,0.9
1503433615.2,286047000.8,N,1.0
1503433635.0,286047001.1,N,1.0
1503433635.9,286047001.1,N,1.0
1503433655.7,286047000.1,N,1.0
1503433675.6,286047002.2,N,1.1
1503433695.4,286046999.9,N,1.1
1503433715.3,286047002.8,N,1.2
1503433735.1,286047000.0,N,1.2
1503433755.8,286047000.9,N,1.2
1503433775.7,286047000.9,N,1.1
1503433795.5,286047000.9,N,1.1
1503433815.4,286047002.4,N,1.2
1503433835.2,286047000.7,N,1.2
1503433855.0,286047000.9,N,1.2
1503433855.9,286047000.9,N,1.2
1503433875.8,286047000.0,N,1.1
1503433895.6,286047002.4,N,1.2
1503433915.5,286047002.8,N,1.2
1503433935.3,286046999.8,N,1.2
1503433955.1,286047000.2,N,1.1
1503433975.9,286047000.1,N,1.1
1503433995.7,286047000.7,N,1.0
1503434015.5,286047000.4,N,1.0
1503434035.4,286047002.4,N,0.9
1503434055.2,286046999.7,N,1.0
1503434075.1,286046999.9,N,1.0
1503434076.0,286046999.9,N,0.9
1503434095.8,286047000.9,N,0.9
1503434115.6,286047001.2,N,0.9
1503434135.5,286047000.7,N,0.9
1503434155.3,286047000.9,N,0.9
1503434175.2,286047000.9,N,0.9
1503434195.9,286046999.9,N,0.9
1503434215.7,286047000.7,N,0.9
1503434235.6,286047000.5,N,0.9
1503434255.4,286046999.9,N,0.9
1503434275.3,286047000.4,N,0.8
1503434295.1,286046998.1,N,0.9
1503434296.0,286046998.1,N,1.0
1503434315.8,286047001.0,N,1.0
1503434335.7,286047001.0,N,1.0
1503434355.5,286047000.9,N,1.0
1503434375.3,286047000.6,N,1.0
1503434395.2,286047000.0,N,1.0
1503434415.0,286047002.2,N,1.0
1503434415.9,286047002.2,N,1.1
1503434435.8,286046999.7,N,1.0
1503434455.6,286046999.7,N,0.9
1503434475.4,286047000.5,N,0.9
1503434495.3,286047000.6,N,0.9
1503434515.1,286047000.9,N,0.9
1503434535.9,286047000.4,N,0.9
1503434555.7,286047000.5,N,0.9
1503434575.5,286047001.2,N,0.9
1503434595.4,286047001.0,N,0.9
1503434615.2,286046998.2,N,1.0
1503434635.0,286046998.5,N,1.0
1503434636.0,286046998.5,N,1.1
1503434655.8,286047001.0,N,1.1
1503434675.6,286047002.8,N,1.2
1503434695.5,286047002.3,N,1.2
1503434715.3,286046999.8,N,1.2
1503434735.1,286047002.1,N,1.2
1503434755.9,286047001.9,N,1.3
1503434775.7,286047002.1,N,1.3
1503434795.6,286047001.6,N,1.3
1503434815.4,286047003.7,N,1.4
1503434835.2,286047004.0,N,1.5
1503434855.1,286047004.2,N,1.5
1503434856.0,286047004.2,N,1.6
1503434875.8,286047002.0,N,1.6
1503434895.7,286047001.5,N,1.6
1503434915.5,286047003.5,N,1.6
1503434935.3,286047002.9,N,1.6
1503434955.2,286047003.0,N,1.6
1503434975.0,286047003.0,N,1.7
1503434975.9,286047003.0,N,1.6
1503434995.8,286047003.2,N,1.6
1503435015.6,286047003.9,N,1.7
1503435035.4,286047003.2,N,1.7
1503435055.3,286047003.4,N,1.7
1503435075.1,286047003.0,N,1.6
1503435095.9,286047005.6,Y,0.0
1503435115.7,286047001.4,P,0.4
1503435135.5,286047003.9,P,1.1
1503435155.4,286047001.4,N,1.0
1503435175.2,286047002.0,N,0.9
1503435195.0,286047002.5,N,0.8
1503435215.4,286047002.1,N,0.8
1503435235.3,286047002.8,Y,0.0
1503435255.1,286047001.2,P,0.5
1503435275.9,286046999.5,N,1.1
1503435295.7,286046999.2,N,1.2
1503435315.5,286046997.3,N,1.7
1503435335.4,286046999.6,N,1.6
1503435355.2,286046996.8,N,1.8
1503435375.1,286046998.8,N,1.7
1503435376.0,286046998.8,N,1.6
1503435395.8,286046997.0,N,1.7
1503435415.6,286046996.9,N,1.7
1503435435.5,286046996.6,N,1.7
1503435455.3,286046996.7,N,1.8
1503435475.1,286046997.8,N,1.7
1503435495.9,286046997.2,N,1.7
1503435515.7,286046995.3,N,1.8
1503435535.6,286046994.9,N,1.9
1503435555.4,286046995.1,N,2.0
1503435575.2,286046994.9,N,2.0
1503435595.1,286046997.4,N,2.0
1503435596.0,286046997.4,N,1.9
